User: anonymous   Login
Location: Unspecified
(0.0000°N, 0.0000°E)
Time: 15:33:56
(UTC+00:00)
Language:

ITAMSAT 1 - Orbit

View from above orbital plane
View from above orbital plane
View from above satellite
View from above satellite

Ground track
Ground track

The orbit data is extracted from the following two-line orbital elements,

1 22826U 93061D   18115.91340514 +.00000004 +00000-0 +19154-4 0  9990
2 22826 098.8525 091.1388 0009804 124.7044 235.5062 14.30359304282032
Epoch (UTC): 25 April 2018 21:55:18
Eccentricity: 0.0009804
inclination: 98.8525°
perigee height: 783 km
apogee height: 797 km
right ascension of ascending node: 91.1388°
argument of perigee: 124.7044°
revolutions per day: 14.30359304
mean anomaly at epoch: 235.5062°
orbit number at epoch: 28203

The dashed part of the orbit path shows where the satellite is in the earth's shadow,  

DLR